カタログに戻る

DFS 1

運用中軍事GEO
NORAD 20041·PAYLOAD·🇩🇪 Germany

打ち上げ Jun 5, 1989 から Guiana Space Centre

Loading…

TLE

最新Source: Space-Track

元期: Sep 14, 2026, 01:59 UTC

1 20041U 89041B   26257.08302544 -.00000271  00000-0  00000-0 0  9998
2 20041  13.9480 345.8678 0014114 299.2633  52.2549  1.00657487125384

AllMySatでDFS 1をリアルタイム追跡

Download on the App Store